| time (UTC) | temp C | wind direction | speed KPH | gust KPH | rain 1hr cm | rain 24hr cm | rain mn cm | humidity % | barometer mb |
| 20260504222534 | 26 | 5 | 0.0 | 3.2 | 0.00 | 0.00 | 0.00 | 71 | 1010.0 |
| 20260504221533 | 27 | 85 | 0.0 | 8.0 | 0.00 | 0.00 | 0.00 | 69 | 1010.1 |
| 20260504220533 | 27 | 72 | 0.0 | 3.2 | 0.00 | 0.00 | 0.00 | 68 | 1010.2 |
| 20260504215533 | 27 | 57 | 0.0 | 0.0 | 0.00 | 0.00 | 0.00 | 67 | 1010.2 |
| 20260504214534 | 27 | 56 | 0.0 | 1.6 | 0.00 | 0.00 | 0.00 | 67 | 1010.4 |
| 20260504212533 | 27 | 78 | 0.0 | 6.4 | 0.00 | 0.00 | 0.00 | 64 | 1010.6 |
| 20260504211534 | 27 | 345 | 1.6 | 6.4 | 0.00 | 0.00 | 0.00 | 66 | 1010.7 |
| 20260504210533 | 27 | 251 | 0.0 | 9.7 | 0.00 | 0.00 | 0.00 | 66 | 1010.9 |
| 20260504205533 | 27 | 338 | 0.0 | 3.2 | 0.00 | 0.00 | 0.00 | 65 | 1011.0 |
| 20260504204533 | 27 | 315 | 0.0 | 9.7 | 0.00 | 0.00 | 0.00 | 66 | 1011.2 |
| 20260504203533 | 27 | 17 | 1.6 | 6.4 | 0.00 | 0.00 | 0.00 | 67 | 1011.2 |
| 20260504202533 | 27 | 87 | 0.0 | 3.2 | 0.00 | 0.00 | 0.00 | 66 | 1011.4 |
| 20260504201534 | 27 | 124 | 0.0 | 3.2 | 0.00 | 0.00 | 0.00 | 66 | 1011.8 |
| 20260504200533 | 27 | 275 | 1.6 | 8.0 | 0.00 | 0.00 | 0.00 | 66 | 1011.9 |
| 20260504195533 | 27 | 35 | 0.0 | 3.2 | 0.00 | 0.00 | 0.00 | 67 | 1012.1 |
| 20260504194533 | 27 | 340 | 1.6 | 3.2 | 0.00 | 0.00 | 0.00 | 65 | 1012.3 |
| 20260504193533 | 27 | 107 | 0.0 | 11.3 | 0.00 | 0.00 | 0.00 | 64 | 1012.3 |
| 20260504192533 | 27 | 42 | 0.0 | 8.0 | 0.00 | 0.00 | 0.00 | 65 | 1012.4 |
| 20260504191533 | 27 | 320 | 0.0 | 3.2 | 0.00 | 0.00 | 0.00 | 67 | 1012.6 |
| 20260504190533 | 27 | 16 | 1.6 | 3.2 | 0.00 | 0.00 | 0.00 | 67 | 1012.9 |
| 20260504184533 | 26 | 321 | 3.2 | 9.7 | 0.00 | 0.00 | 0.00 | 63 | 1013.1 |
| 20260504182533 | 26 | 257 | 1.6 | 11.3 | 0.00 | 0.00 | 0.00 | 66 | 1013.2 |
| 20260504181533 | 26 | 326 | 4.8 | 4.8 | 0.00 | 0.00 | 0.00 | 67 | 1013.2 |
| 20260504180533 | 26 | 5 | 3.2 | 14.5 | 0.00 | 0.00 | 0.00 | 68 | 1013.4 |
| 20260504175533 | 25 | 98 | 0.0 | 6.4 | 0.00 | 0.00 | 0.00 | 68 | 1013.6 |
| 20260504173533 | 25 | 69 | 1.6 | 4.8 | 0.00 | 0.00 | 0.00 | 69 | 1013.8 |
| 20260504172533 | 25 | 88 | 0.0 | 14.5 | 0.00 | 0.00 | 0.00 | 68 | 1013.9 |
| 20260504171533 | 25 | 57 | 4.8 | 8.0 | 0.00 | 0.00 | 0.00 | 69 | 1014.1 |
| 20260504170533 | 25 | 61 | 1.6 | 9.7 | 0.00 | 0.00 | 0.00 | 67 | 1014.3 |
| 20260504150533 | 21 | 273 | 0.0 | 3.2 | 0.00 | 0.00 | 0.00 | 79 | 1015.3 |
| 20260504140533 | 16 | 69 | 0.0 | 1.6 | 0.00 | 0.00 | 0.00 | 92 | 1015.2 |
| 20260504130533 | 13 | 71 | 0.0 | 0.0 | 0.00 | 0.00 | 0.00 | 93 | 1015.0 |
| 20260504100533 | 13 | 71 | 0.0 | 0.0 | 0.00 | 0.00 | 0.00 | 90 | 1015.0 |
| 20260504081532 | 14 | 71 | 0.0 | 0.0 | 0.00 | 0.00 | 0.00 | 89 | 1015.5 |
| 20260504050532 | 15 | 71 | 0.0 | 0.0 | 0.00 | 0.00 | 0.00 | 82 | 1017.6 |
| 20260504045532 | 16 | 71 | 0.0 | 0.0 | 0.00 | 0.00 | 0.00 | 82 | 1017.6 |
| 20260504044532 | 16 | 71 | 0.0 | 0.0 | 0.00 | 0.00 | 0.00 | 81 | 1017.7 |
| 20260504043532 | 16 | 71 | 0.0 | 0.0 | 0.00 | 0.00 | 0.00 | 81 | 1017.8 |
| 20260504041532 | 16 | 71 | 0.0 | 0.0 | 0.00 | 0.00 | 0.00 | 80 | 1017.7 |
| 20260504035532 | 17 | 71 | 0.0 | 0.0 | 0.00 | 0.00 | 0.00 | 78 | 1017.8 |
| 20260504034532 | 17 | 71 | 0.0 | 0.0 | 0.00 | 0.00 | 0.00 | 77 | 1017.8 |
| 20260504032532 | 17 | 71 | 0.0 | 0.0 | 0.00 | 0.00 | 0.00 | 77 | 1017.7 |
| 20260504031532 | 17 | 71 | 0.0 | 0.0 | 0.00 | 0.00 | 0.00 | 76 | 1017.7 |
| 20260504030532 | 17 | 71 | 0.0 | 0.0 | 0.00 | 0.00 | 0.00 | 78 | 1017.5 |
| 20260504025532 | 18 | 71 | 0.0 | 0.0 | 0.00 | 0.00 | 0.00 | 77 | 1017.3 |
| 20260504024532 | 18 | 71 | 0.0 | 0.0 | 0.00 | 0.00 | 0.00 | 77 | 1017.1 |
| 20260504023532 | 18 | 71 | 0.0 | 0.0 | 0.00 | 0.00 | 0.00 | 76 | 1017.2 |
| 20260504022532 | 18 | 71 | 0.0 | 0.0 | 0.00 | 0.00 | 0.00 | 75 | 1017.2 |
| 20260504021532 | 18 | 71 | 0.0 | 0.0 | 0.00 | 0.00 | 0.00 | 72 | 1017.1 |
| 20260504020532 | 18 | 71 | 0.0 | 0.0 | 0.00 | 0.00 | 0.00 | 75 | 1017.0 |
| 20260504015532 | 19 | 71 | 0.0 | 0.0 | 0.00 | 0.00 | 0.00 | 73 | 1016.9 |
| 20260504012532 | 20 | 71 | 0.0 | 0.0 | 0.00 | 0.00 | 0.00 | 65 | 1016.6 |
| 20260504011532 | 21 | 71 | 0.0 | 0.0 | 0.00 | 0.00 | 0.00 | 63 | 1016.5 |
| 20260504010532 | 21 | 71 | 0.0 | 0.0 | 0.00 | 0.00 | 0.00 | 62 | 1016.5 |
| 20260504004531 | 22 | 71 | 0.0 | 0.0 | 0.00 | 0.00 | 0.00 | 58 | 1016.6 |
| 20260504003532 | 23 | 71 | 0.0 | 0.0 | 0.00 | 0.00 | 0.00 | 57 | 1016.6 |
| 20260504002531 | 23 | 71 | 0.0 | 0.0 | 0.00 | 0.00 | 0.00 | 58 | 1016.7 |
| 20260504001532 | 24 | 71 | 0.0 | 0.0 | 0.00 | 0.00 | 0.00 | 57 | 1016.7 |
| 20260504000532 | 25 | 71 | 0.0 | 0.0 | 0.00 | 0.00 | 0.00 | 60 | 1016.6 |
| 20260503235532 | 25 | 71 | 0.0 | 1.6 | 0.00 | 0.00 | 0.00 | 59 | 1016.7 |
| 20260503234532 | 26 | 32 | 0.0 | 1.6 | 0.00 | 0.00 | 0.00 | 53 | 1016.7 |
| 20260503233531 | 26 | 32 | 0.0 | 1.6 | 0.00 | 0.00 | 0.00 | 53 | 1016.7 |
| 20260503232532 | 27 | 32 | 0.0 | 3.2 | 0.00 | 0.00 | 0.00 | 47 | 1016.7 |
| 20260503231532 | 27 | 32 | 0.0 | 1.6 | 0.00 | 0.00 | 0.00 | 47 | 1016.9 |
| 20260503230532 | 27 | 30 | 0.0 | 1.6 | 0.00 | 0.00 | 0.00 | 50 | 1016.9 |
| 20260503225532 | 27 | 30 | 0.0 | 1.6 | 0.00 | 0.00 | 0.00 | 47 | 1016.9 |
| 20260503224532 | 27 | 30 | 0.0 | 3.2 | 0.00 | 0.00 | 0.00 | 49 | 1017.0 |